Total_Precipitation_Accumulation
1.07 1.07 1.06 1.12 1.19 1.20 1.18 1.17 1.25 1.36 1.47 1.70 2.02 2.52 2.77 2.80 2.66 2.63 2.53 2.31 2.06 2.01 2.17 2.18 2.14 2.13 2.15 2.14 2.09 2.30 2.23 1.94 1.85 2.07 2.06 1.87 1.67 1.59 1.57 1.62 1.87 2.00 1.95
1.09 1.07 1.04 1.05 1.07 1.07 1.10 1.26 1.34 1.44 1.54 1.76 2.07 2.42 2.84 2.91 2.82 2.67 2.58 2.47 2.31 2.25 2.26 2.47 2.57 2.51 2.72 2.74 2.53 2.66 2.68 2.30 2.06 2.39 2.77 2.49 2.24 1.73 1.61 1.75 1.82 1.92 2.05
0.90 0.97 1.03 1.08 1.06 1.02 0.99 1.10 1.28 1.52 1.80 2.05 2.34 2.51 2.77 2.86 2.84 2.68 2.60 2.63 2.53 2.39 2.45 2.54 2.69 2.68 2.77 2.99 3.12 3.04 3.13 2.90 2.45 2.33 2.73 2.71 2.57 2.32 1.91 1.83 1.90 2.03 2.11
0.81 0.87 0.96 1.03 1.02 0.94 0.93 1.00 1.14 1.43 1.83 2.16 2.36 2.58 2.92 3.02 2.87 2.78 2.67 2.66 2.67 2.65 2.76 2.74 2.78 2.79 2.80 2.90 3.08 3.09 3.29 3.40 2.98 2.61 2.34 2.19 2.22 2.43 2.28 1.99 1.92 2.08 2.07
0.66 0.74 0.80 0.83 0.87 0.95 0.98 1.04 1.26 1.54 1.87 2.05 2.28 2.61 2.78 2.88 2.97 2.85 2.76 2.72 2.75 2.77 2.84 2.89 2.98 2.94 2.91 2.83 3.03 3.15 3.29 3.24 3.19 3.07 2.88 2.71 2.46 2.10 2.27 2.30 2.12 2.02 1.91
0.53 0.65 0.80 0.86 0.92 0.97 1.08 1.21 1.40 1.62 1.88 2.05 2.29 2.42 2.58 2.75 2.81 2.84 2.75 2.70 2.74 2.83 2.70 2.63 2.80 2.84 2.84 2.78 2.92 3.06 3.23 3.24 3.28 3.22 2.93 2.96 2.88 2.51 2.47 2.29 2.13 2.19 2.01
0.62 0.75 0.92 1.09 1.16 1.18 1.22 1.36 1.54 1.77 1.92 2.00 2.11 2.17 2.25 2.36 2.33 2.48 2.54 2.64 2.63 2.67 2.68 2.57 2.59 2.63 2.55 2.52 2.62 2.66 2.75 2.89 3.09 3.00 2.77 2.72 2.57 2.57 2.71 2.63 2.36 2.16 1.93
0.78 0.95 1.13 1.35 1.45 1.48 1.49 1.53 1.62 1.76 1.83 1.84 1.92 2.02 2.05 2.10 2.05 2.04 2.05 2.21 2.35 2.38 2.44 2.46 2.41 2.45 2.48 2.42 2.51 2.50 2.51 2.55 2.61 2.55 2.68 2.72 2.54 2.50 2.53 2.63 2.84 2.59 2.27
1.05 1.21 1.39 1.50 1.51 1.58 1.59 1.60 1.65 1.68 1.71 1.76 1.82 1.78 1.79 1.83 1.84 1.82 1.88 1.91 1.96 1.97 2.00 2.05 2.18 2.30 2.35 2.36 2.47 2.51 2.47 2.40 2.39 2.49 2.57 2.52 2.46 2.46 2.41 2.45 2.67 2.83 2.62
1.38 1.57 1.77 1.74 1.69 1.72 1.82 1.75 1.71 1.69 1.75 1.79 1.80 1.72 1.73 1.76 1.75 1.65 1.69 1.64 1.61 1.62 1.68 1.76 1.92 2.20 2.33 2.35 2.40 2.45 2.46 2.44 2.37 2.46 2.60 2.64 2.59 2.62 2.58 2.52 2.55 2.53 2.57
1.75 1.90 2.03 2.02 1.86 1.76 1.76 1.71 1.67 1.68 1.64 1.72 1.82 1.77 1.71 1.71 1.72 1.62 1.54 1.53 1.52 1.52 1.58 1.64 1.77 1.91 2.12 2.34 2.48 2.46 2.40 2.37 2.32 2.23 2.35 2.50 2.57 2.70 2.76 2.80 2.73 2.62 2.58
1.67 1.74 1.79 1.92 1.81 1.73 1.63 1.61 1.56 1.47 1.50 1.59 1.70 1.81 1.72 1.66 1.64 1.55 1.59 1.51 1.44 1.44 1.43 1.55 1.75 1.86 1.94 2.02 2.11 2.16 2.19 2.20 2.22 2.16 2.11 2.18 2.27 2.39 2.58 2.71 2.69 2.70 2.61
1.39 1.53 1.65 1.65 1.70 1.71 1.62 1.72 1.77 1.63 1.67 1.72 1.87 1.88 1.78 1.72 1.69 1.56 1.64 1.53 1.45 1.44 1.43 1.45 1.59 1.68 1.78 1.85 1.91 2.02 2.11 2.12 2.04 2.03 1.91 1.87 1.97 2.11 2.27 2.36 2.47 2.61 2.67
1.25 1.31 1.44 1.43 1.58 1.72 1.70 1.77 1.81 1.76 1.78 1.91 2.00 1.89 1.79 1.72 1.67 1.55 1.52 1.51 1.47 1.43 1.47 1.57 1.60 1.64 1.66 1.78 1.84 1.92 1.91 1.87 1.77 1.74 1.66 1.64 1.68 1.82 2.02 2.12 2.33 2.56 2.69
1.09 1.05 1.10 1.18 1.31 1.42 1.48 1.53 1.54 1.56 1.67 1.76 1.80 1.80 1.69 1.57 1.51 1.55 1.37 1.38 1.48 1.49 1.51 1.57 1.62 1.64 1.65 1.71 1.83 1.78 1.66 1.65 1.64 1.56 1.38 1.33 1.43 1.49 1.63 1.63 1.90 2.20 2.46
0.87 0.86 0.88 0.93 1.02 0.97 1.04 1.16 1.28 1.41 1.57 1.61 1.59 1.59 1.54 1.53 1.49 1.43 1.36 1.33 1.35 1.41 1.43 1.44 1.58 1.67 1.55 1.78 1.82 1.63 1.43 1.39 1.45 1.42 1.28 1.22 1.26 1.20 1.22 1.28 1.53 1.85 2.04
0.76 0.79 0.81 0.79 0.84 0.84 0.89 0.98 1.11 1.27 1.39 1.45 1.38 1.29 1.26 1.30 1.33 1.32 1.35 1.35 1.33 1.34 1.37 1.32 1.42 1.47 1.56 1.66 1.49 1.48 1.35 1.34 1.32 1.34 1.36 1.25 1.16 1.29 1.16 1.15 1.26 1.35 1.49
0.67 0.72 0.75 0.74 0.77 0.85 0.92 1.00 1.07 1.12 1.23 1.34 1.34 1.27 1.18 1.15 1.18 1.21 1.28 1.35 1.30 1.27 1.30 1.27 1.21 1.27 1.42 1.46 1.30 1.38 1.27 1.34 1.37 1.38 1.47 1.46 1.35 1.33 1.45 1.37 1.36 1.31 1.25
0.49 0.51 0.54 0.57 0.63 0.71 0.78 0.82 0.86 0.89 0.98 1.07 1.12 1.13 1.04 1.07 1.15 1.14 1.28 1.36 1.26 1.24 1.21 1.22 1.16 1.18 1.23 1.28 1.19 1.23 1.22 1.34 1.33 1.27 1.42 1.49 1.39 1.53 1.67 1.70 1.71 1.61 1.44
0.35 0.34 0.39 0.42 0.47 0.56 0.69 0.74 0.72 0.68 0.75 0.85 0.86 0.93 0.97 1.00 1.08 1.18 1.29 1.31 1.27 1.25 1.16 1.15 1.11 1.07 1.05 1.17 1.06 1.15 1.19 1.27 1.29 1.30 1.34 1.56 1.48 1.51 1.51 1.54 1.65 1.60 1.43
0.33 0.32 0.35 0.40 0.46 0.53 0.61 0.65 0.69 0.66 0.68 0.76 0.80 0.84 0.86 0.94 1.07 1.19 1.18 1.12 1.13 1.17 1.15 1.14 1.07 1.01 1.06 1.18 1.18 1.23 1.19 1.25 1.29 1.38 1.42 1.42 1.59 1.45 1.40 1.38 1.34 1.43 1.44
0.31 0.32 0.33 0.38 0.47 0.49 0.50 0.53 0.56 0.58 0.62 0.65 0.71 0.73 0.73 0.79 0.87 0.95 1.05 1.05 1.04 1.09 1.05 1.02 1.01 0.95 1.02 1.10 1.10 1.14 1.16 1.25 1.21 1.23 1.25 1.23 1.40 1.26 1.20 1.14 1.18 1.31 1.39
0.27 0.33 0.39 0.45 0.50 0.52 0.49 0.49 0.51 0.55 0.61 0.66 0.68 0.65 0.64 0.68 0.75 0.83 0.95 1.04 1.07 1.04 1.00 0.91 0.86 0.85 0.86 0.94 1.00 0.97 0.96 1.03 1.04 1.01 1.18 1.21 1.19 1.13 1.04 1.09 1.15 1.19 1.21
0.26 0.31 0.41 0.46 0.52 0.52 0.50 0.49 0.50 0.52 0.55 0.61 0.68 0.70 0.71 0.72 0.74 0.78 0.84 0.98 1.04 0.97 0.88 0.86 0.85 0.86 0.86 0.83 0.84 0.88 0.86 0.87 0.95 0.96 1.07 1.12 1.07 1.04 1.01 1.05 1.09 1.11 1.16
0.27 0.31 0.38 0.44 0.50 0.57 0.54 0.52 0.52 0.50 0.51 0.58 0.62 0.64 0.69 0.74 0.73 0.71 0.71 0.80 0.85 0.91 0.95 0.92 0.92 0.94 0.93 0.86 0.83 0.79 0.82 0.86 0.96 1.06 1.03 1.02 1.00 0.99 1.02 1.04 1.03 1.09 1.15
0.32 0.35 0.37 0.41 0.44 0.52 0.59 0.59 0.62 0.59 0.57 0.58 0.62 0.63 0.65 0.71 0.71 0.69 0.71 0.75 0.77 0.87 0.89 0.88 0.89 0.79 0.75 0.77 0.73 0.72 0.77 0.86 0.96 1.10 1.14 1.16 1.20 1.21 1.18 1.14 1.05 1.02 1.05